Miscellaneous Local Product
Issued by NWS Hastings, NE

Home | Current Version | Previous Version | Text Only | Print | Product List | Glossary Off
Versions: 1 2 3 4 5 6 7 8 9 10 11 12 13 14 15 16 17 18 19 20 21 22 23 24 25 26 27 28 29 30 31 32 33 34 35 36 37 38 39 40 41 42 43 44 45 46 47 48 49 50

000
AXUS43 KGID 191202
MISGRI

GID CWA HOURLY WEATHER ROUNDUP
NATIONAL WEATHER SERVICE HASTINGS NE
700 AM CDT TUE SEP 19 2017

NOTE: "FAIR" INDICATES FEW OR NO CLOUDS BELOW 12,000 FEET WITH NO
SIGNIFICANT WEATHER AND/OR OBSTRUCTIONS TO VISIBILITY.

...SOUTH CENTRAL NEBRASKA...

CITY           SKY/WX    TMP DP  RH WIND       PRES   REMARKS
GRAND ISLAND   CLEAR     63  63 100 S8        29.77S
HASTINGS       CLEAR     64  61  90 S8        29.77F
KEARNEY        CLEAR     60  59  96 SE6       29.75F
ORD            CLOUDY    60  59  96 SE6       29.73F FOG
YORK           CLEAR     64  63  94 S6        29.78F
AURORA         CLEAR     63  63 100 S8        29.77F
LEXINGTON      CLEAR     59  57  94 SE5       29.73F FOG
HOLDREGE       CLEAR     63  61  94 S7        29.74F
HEBRON         CLEAR     66  64  94 SE5       29.78F

...NEBRASKA PANHANDLE...

CITY           SKY/WX    TMP DP  RH WIND       PRES   REMARKS
CHADRON        CLOUDY    65  48  54 S16       29.58F
ALLIANCE       CLOUDY    54  51  90 SE9       29.66F
SCOTTSBLUFF    CLOUDY    53  48  83 E8        29.67F
SIDNEY         CLOUDY    52  48  86 S8        29.68F

...WESTERN AND NORTH CENTRAL NEBRASKA...

CITY           SKY/WX    TMP DP  RH WIND       PRES   REMARKS
VALENTINE      CLOUDY    62  58  86 SE6       29.67F
AINSWORTH      CLOUDY    60  60  99 S9        29.69F
ONEILL         FOG       61  61 100 SE12      29.73F VSB 1/2
BROKEN BOW     CLEAR     59  59 100 SE6       29.73F
IMPERIAL       CLOUDY    64  60  87 S12       29.68F
NORTH PLATTE   CLEAR     60  59  96 E10       29.69F
MCCOOK         CLEAR     67  64  90 S6        29.69F

...EASTERN NEBRASKA...

CITY           SKY/WX    TMP DP  RH WIND       PRES   REMARKS
NORFOLK        MOCLDY    63  63 100 SE8       29.77F FOG
SO SIOUX CITY  CLOUDY    66  66 100 SE8       29.81S FOG
TEKAMAH        CLOUDY    67  65  93 SE9       29.81S FOG
COLUMBUS       PTCLDY    65  63  93 SE3       29.80R
ALBION         LGT RAIN  63  63  99 SE7       29.77S VSB 1/4
OMAHA EPPLEY   CLOUDY    68  64  87 SE13      29.83R FOG
OFFUTT AFB     CLOUDY    67  65  94 SE12      29.82F
MILLARD        CLOUDY    69  67  94 SE10      29.82S FOG
LINCOLN        CLEAR     67  64  90 SE10      29.81S
NEBRASKA CITY  FOG       66  66 100 SE8       29.84S VSB 3/4
BEATRICE       CLEAR     66  65  95 SE8       29.81F
FALLS CITY     MOCLDY    65  64  97 SE6       29.84R FOG

...NORTHERN KANSAS...

CITY           SKY/WX    TMP DP  RH WIND       PRES   REMARKS
GOODLAND       CLEAR     62  61  96 S15       29.72S FOG
HILL CITY      CLEAR     68  64  87 S9        29.73F
NORTON         SUNNY     68  61  77 S3        29.72S
PHILLIPSBURG   CLEAR     64  64 100 E6        29.73F
SMITH CENTER   CLEAR     61  61 100 E7        29.76F FOG
HAYS           CLEAR     69  63  81 S10       29.74F
RUSSELL        CLEAR     69  63  81 S17       29.74F
CONCORDIA      CLEAR     67  66  97 SE9       29.78F
SALINA         CLEAR     71  65  81 S14       29.79F
TOPEKA         MOCLDY    67  67 100 E6        29.86R



USA.gov is the U.S. government's official web portal to all federal, state and local government web resources and services.